Wetbulb
42.96 43.77 45.34 47.59 50.65 53.95 56.15 57.99 60.68 68.52 65.97 64.85 63.24 61.80 61.29 60.86 60.24 58.68 57.97 56.40 54.99 53.12 50.72 49.90 48.76 48.30 47.27 47.80 48.22 47.08 46.32 46.32 44.12 45.91 47.54 47.31 47.24 48.55 49.08 48.96 50.41 48.96 48.70
40.96 41.89 42.69 44.63 46.99 49.73 53.80 55.64 59.95 67.94 65.42 65.38 62.66 61.06 60.64 59.91 58.97 58.29 56.78 56.35 55.05 52.41 51.65 49.96 48.93 50.24 47.83 47.19 45.92 44.57 44.71 45.06 44.44 42.46 43.32 44.00 46.36 46.55 46.62 46.23 47.91 49.31 46.74
40.19 40.54 41.63 42.77 44.13 45.86 49.52 53.18 57.49 63.36 63.16 62.32 61.47 60.28 59.96 59.41 59.19 57.47 57.45 55.03 53.58 52.90 51.08 49.42 48.50 47.74 46.73 44.38 43.61 42.83 42.83 44.14 42.24 41.71 40.42 42.07 43.30 45.03 43.73 44.28 44.56 43.46 46.97
39.98 40.35 41.41 43.15 44.47 45.74 47.46 50.66 55.08 62.64 61.72 60.43 60.13 59.70 59.44 59.23 59.21 58.05 57.29 54.66 52.97 51.74 51.17 49.40 48.48 48.05 46.04 44.32 43.60 43.08 42.67 41.83 41.23 40.44 39.86 40.12 40.65 43.40 42.39 41.18 40.34 40.98 41.48
39.67 41.65 42.31 43.99 45.42 46.82 48.20 49.76 54.98 62.24 61.15 59.97 58.93 58.80 58.73 58.79 58.30 56.24 54.44 53.04 50.65 49.59 49.35 48.84 49.04 50.58 51.54 47.37 43.94 42.39 42.37 40.94 40.78 39.72 38.68 38.61 38.76 39.83 39.36 40.24 39.05 39.26 41.07
39.56 40.55 43.00 43.86 44.82 47.17 50.33 51.27 54.51 60.41 59.54 58.95 58.13 57.84 56.31 56.32 51.40 51.96 52.00 50.46 49.92 48.75 47.28 47.83 48.88 53.34 52.31 51.22 50.67 48.48 45.32 41.44 40.01 38.97 38.23 37.74 38.74 39.62 39.59 38.53 37.50 36.85 36.30
39.33 40.46 41.31 44.05 45.03 46.02 48.30 53.21 56.25 59.36 58.33 56.87 51.96 50.54 49.39 49.87 47.90 48.14 49.01 47.99 47.89 47.15 46.87 47.09 47.81 50.02 50.01 47.79 49.32 50.02 49.17 48.73 46.51 41.08 39.31 39.60 39.31 40.71 38.89 36.58 36.37 36.49 36.52
38.94 39.38 40.33 42.90 44.97 45.37 48.16 53.12 59.26 57.86 51.94 48.72 46.48 46.00 45.84 46.96 46.41 45.74 46.01 45.68 45.98 46.76 47.05 46.61 47.17 46.94 44.27 47.42 46.71 45.62 45.30 44.92 44.64 44.62 43.26 42.30 42.20 40.55 39.21 39.05 38.42 37.81 38.04
38.67 38.72 39.16 41.49 44.08 45.00 51.52 55.12 53.13 47.07 45.21 44.67 43.90 43.11 43.50 44.25 44.59 44.05 44.86 45.16 45.30 45.36 45.45 45.83 44.46 41.67 42.24 43.52 43.84 41.53 41.15 41.34 46.32 45.79 44.82 44.19 43.34 43.32 43.55 39.80 38.53 36.34 35.78
39.34 39.83 39.06 39.65 41.70 43.71 44.63 46.81 47.95 46.51 45.37 44.05 43.82 44.43 44.49 43.72 43.19 43.48 44.55 44.10 43.03 44.21 43.26 42.47 42.79 41.37 40.82 40.70 38.93 37.14 36.43 37.77 38.55 38.98 39.33 39.45 40.55 40.60 44.32 41.33 39.67 37.95 37.45
40.36 41.00 39.72 38.39 38.91 41.05 43.70 45.77 44.91 44.69 44.55 44.36 43.55 43.21 42.84 42.95 42.15 42.01 42.39 42.54 42.44 42.80 43.35 42.39 40.47 41.03 39.84 39.65 40.05 37.34 36.60 37.45 37.84 36.32 36.27 36.70 37.60 38.12 39.45 40.21 42.27 42.41 41.14
40.18 40.07 40.74 40.17 38.00 37.57 38.73 41.77 43.82 44.16 42.67 42.59 42.01 41.34 41.83 41.75 41.61 40.86 40.53 40.62 41.51 40.19 39.60 39.33 37.98 38.58 38.72 39.30 38.81 39.27 39.48 39.91 36.54 35.43 35.49 36.36 37.25 37.82 39.06 40.15 41.25 44.10 44.29
39.51 39.68 40.87 41.00 40.19 39.16 34.91 37.91 39.60 40.55 40.24 39.82 37.27 35.18 35.24 38.21 38.36 38.43 38.40 38.30 38.93 37.43 37.39 37.71 37.68 37.52 37.91 37.65 39.13 39.78 40.32 36.97 35.85 37.37 38.53 39.31 40.37 40.02 40.50 39.88 41.73 43.91 44.50
38.30 38.64 39.68 41.64 40.40 40.35 40.06 39.04 39.32 39.18 39.75 38.52 36.94 35.85 36.12 36.31 36.33 36.40 36.10 34.93 36.13 35.13 35.59 33.18 35.56 37.12 38.35 38.81 40.34 40.33 40.43 40.39 39.90 39.34 39.26 40.29 41.64 41.24 40.80 41.67 41.90 42.49 40.50
37.56 38.40 38.37 39.28 41.01 40.31 39.24 38.50 38.52 38.21 39.10 37.40 37.30 36.86 35.24 34.16 34.97 36.33 35.71 34.99 34.73 34.54 34.38 32.00 32.35 33.68 36.95 39.09 39.51 39.51 39.41 39.24 38.09 38.62 38.82 38.87 39.39 40.20 40.06 39.67 41.27 40.16 38.96
36.26 37.31 36.96 37.13 37.56 39.41 37.63 36.71 38.02 37.90 37.69 37.11 37.09 36.76 36.35 36.67 36.76 36.75 36.67 36.23 36.18 35.89 32.46 30.17 33.25 36.97 37.42 38.01 37.54 37.62 38.08 38.24 38.22 38.45 38.38 38.45 38.27 38.68 39.32 40.56 40.80 39.33 40.01
34.95 36.67 36.70 37.09 36.98 36.65 36.96 36.32 34.07 36.11 38.02 37.29 36.78 36.85 36.68 36.43 36.43 36.67 36.74 36.53 35.98 35.74 34.83 35.44 35.82 36.56 37.27 37.50 37.32 37.26 36.74 37.95 38.72 38.30 38.33 38.20 38.75 39.35 38.93 39.27 40.04 40.00 39.68
36.58 38.57 35.86 36.14 35.76 36.21 35.97 35.88 36.24 35.33 34.48 34.86 36.53 36.42 36.68 36.37 36.21 35.93 36.22 36.16 35.14 36.05 35.40 35.16 35.28 35.75 36.34 36.58 36.84 36.87 37.34 37.83 37.75 37.76 37.66 37.91 38.14 37.64 37.67 38.28 39.13 39.39 39.28
36.16 36.06 35.16 35.67 35.58 36.35 35.58 35.14 35.21 35.80 34.30 33.13 32.94 33.69 33.93 35.35 35.56 35.71 35.92 34.43 33.73 34.01 34.43 34.52 35.33 35.42 35.29 35.81 36.29 36.59 35.64 35.81 36.30 36.80 37.02 37.27 37.89 38.18 37.80 38.20 39.31 35.82 35.76
34.75 37.05 35.42 34.33 34.11 34.49 34.64 33.69 33.34 32.67 32.12 32.64 31.02 29.90 31.05 31.09 30.89 31.73 34.32 34.02 33.69 34.02 34.60 34.63 35.10 35.43 35.39 35.39 35.49 35.79 34.96 34.84 34.01 35.05 35.68 36.45 37.15 37.88 37.82 38.12 39.33 38.63 39.17
33.47 33.90 31.91 33.49 32.43 32.58 32.68 32.47 31.77 32.10 31.51 32.97 31.30 30.81 30.14 28.75 29.27 29.94 30.91 31.49 30.78 33.25 34.24 34.69 34.98 35.13 35.31 35.45 35.56 35.48 35.46 35.34 35.85 35.47 35.63 35.99 37.35 36.60 37.66 38.45 38.78 38.93 39.36
33.22 32.87 33.68 32.12 31.65 31.33 30.55 31.12 30.48 30.28 30.99 30.25 30.20 31.20 31.08 29.71 29.29 29.28 32.12 30.78 31.28 32.01 33.74 34.79 34.87 35.19 35.72 35.65 35.40 35.25 35.73 35.45 35.74 36.24 35.65 34.54 36.53 37.12 37.78 37.91 38.13 38.81 39.68
33.20 32.63 32.16 32.48 33.00 31.24 29.91 29.90 29.39 28.37 28.50 29.18 29.72 30.30 29.75 29.18 29.24 29.31 32.61 32.20 30.57 32.03 33.41 34.20 33.77 33.67 35.37 35.70 36.11 35.94 35.23 35.13 36.22 37.25 36.53 35.43 33.98 34.22 36.54 36.93 37.88 37.69 38.57
33.40 32.57 31.95 31.70 32.17 33.08 34.70 32.98 30.41 30.56 30.71 30.98 30.85 30.89 30.58 30.43 30.84 31.57 30.98 30.72 31.26 31.86 31.76 31.12 31.83 32.47 32.72 35.04 36.32 36.56 36.18 36.69 37.52 37.41 37.53 35.90 35.59 36.31 36.90 36.77 36.83 36.40 37.29
33.50 32.47 31.50 30.21 29.65 29.93 34.59 34.07 29.44 28.81 28.73 29.45 29.90 29.89 29.75 30.35 30.30 30.65 30.75 30.30 30.58 31.93 31.78 31.27 31.96 32.37 33.33 34.14 34.48 34.70 34.99 33.20 34.72 34.16 35.94 35.26 33.84 34.20 35.86 36.05 35.77 36.34 36.15
34.35 33.63 31.80 30.41 28.95 29.25 30.03 33.37 29.04 28.14 27.42 29.41 29.15 28.64 29.11 29.32 29.41 29.91 29.58 29.19 30.06 31.03 30.32 31.13 32.10 32.95 33.38 33.58 33.94 33.58 33.32 33.13 33.59 32.66 34.53 34.62 33.56 33.28 34.08 34.38 34.84 34.45 35.44
MSLP
1018.13 1016.82 1015.79 1014.63 1013.35 1012.35 1011.43 1010.62 1009.09 1006.78 1006.92 1007.00 1007.61 1008.35 1007.75 1009.50 1010.63 1010.85 1011.35 1013.04 1014.30 1015.27 1015.37 1015.16 1015.24 1015.29 1016.11 1016.49 1016.65 1016.92 1017.31 1017.38 1017.90 1017.44 1017.11 1016.83 1016.78 1016.34 1015.93 1015.71 1015.49 1015.29 1014.92
1019.11 1017.51 1015.57 1014.49 1013.28 1011.98 1010.85 1009.72 1008.32 1005.87 1005.83 1006.09 1006.52 1007.16 1007.98 1007.39 1009.31 1010.45 1012.04 1012.99 1013.74 1014.51 1014.97 1015.18 1015.57 1015.39 1016.06 1016.48 1016.74 1017.23 1017.34 1017.58 1017.94 1017.76 1017.60 1017.37 1016.97 1016.69 1016.60 1016.32 1015.91 1015.53 1015.48
1018.49 1017.57 1016.05 1014.32 1013.03 1011.79 1010.58 1009.14 1007.89 1006.46 1005.71 1005.79 1006.37 1006.94 1008.17 1007.93 1009.15 1010.04 1011.33 1012.56 1012.97 1013.37 1014.25 1014.79 1015.35 1015.68 1016.23 1016.58 1016.76 1017.39 1017.60 1017.63 1017.83 1017.84 1017.87 1017.61 1017.25 1016.93 1016.69 1016.52 1016.28 1015.97 1015.46
1018.01 1016.50 1015.31 1014.17 1012.49 1010.98 1010.02 1008.77 1007.09 1005.97 1005.32 1005.13 1005.34 1006.09 1007.27 1007.79 1008.53 1009.79 1011.36 1012.42 1012.50 1012.85 1013.50 1013.95 1014.98 1015.61 1016.15 1016.46 1016.62 1017.17 1017.49 1017.53 1017.71 1018.00 1018.01 1018.12 1017.84 1017.24 1017.21 1016.95 1016.32 1015.85 1015.68
1017.67 1015.96 1014.11 1012.34 1011.36 1010.22 1008.44 1007.17 1006.08 1004.37 1004.55 1004.46 1005.10 1005.92 1006.55 1007.57 1008.19 1009.63 1010.96 1012.12 1012.40 1012.81 1013.75 1013.94 1014.64 1015.18 1015.70 1015.88 1016.51 1017.17 1017.31 1017.44 1017.66 1017.75 1018.09 1018.18 1017.93 1017.62 1017.51 1017.08 1016.45 1015.74 1015.47
1017.63 1015.81 1014.03 1011.67 1009.80 1008.47 1006.86 1006.05 1005.33 1003.39 1003.81 1004.09 1004.38 1005.57 1006.81 1007.85 1008.25 1009.43 1010.71 1011.75 1012.47 1012.41 1013.73 1014.15 1014.64 1014.99 1015.39 1015.59 1016.21 1016.52 1016.66 1017.05 1017.40 1017.59 1018.05 1018.15 1017.83 1017.41 1017.46 1017.41 1016.85 1016.29 1015.93
1017.88 1016.07 1013.92 1011.33 1009.31 1007.57 1005.94 1004.22 1003.35 1002.53 1002.95 1004.04 1004.72 1006.27 1007.30 1008.31 1008.57 1009.58 1010.49 1011.81 1012.43 1012.74 1013.75 1014.28 1014.88 1014.96 1015.26 1015.85 1016.31 1016.48 1016.63 1016.57 1016.66 1017.15 1017.55 1017.64 1017.48 1017.11 1017.31 1017.32 1017.08 1016.74 1016.60
1017.67 1016.01 1013.82 1011.27 1008.83 1006.60 1004.42 1003.43 1002.25 1001.96 1002.82 1004.19 1005.31 1007.00 1008.46 1009.42 1009.14 1010.41 1010.99 1011.75 1012.31 1013.27 1014.08 1014.61 1014.65 1014.99 1015.59 1015.75 1016.08 1016.23 1016.23 1016.17 1016.41 1016.31 1016.80 1016.74 1016.79 1017.03 1017.03 1016.85 1016.72 1016.73 1016.31
1017.59 1016.20 1014.28 1011.92 1009.11 1006.54 1002.87 1002.09 1002.09 1002.70 1003.57 1004.78 1006.85 1007.70 1008.43 1010.34 1009.59 1010.58 1011.43 1012.39 1012.59 1013.84 1014.67 1014.81 1014.84 1015.45 1015.86 1015.91 1015.97 1016.10 1016.44 1016.35 1016.35 1016.31 1016.18 1016.41 1016.45 1016.75 1016.57 1016.51 1016.36 1016.77 1016.69
1018.19 1016.91 1015.37 1013.15 1010.75 1008.05 1005.63 1004.04 1003.79 1003.83 1005.01 1005.91 1007.58 1008.83 1008.92 1010.55 1010.96 1011.75 1012.15 1013.21 1013.98 1014.69 1015.31 1015.12 1015.27 1015.81 1015.88 1015.97 1016.03 1016.72 1016.78 1016.50 1016.52 1016.43 1016.26 1016.07 1016.21 1016.21 1015.97 1015.82 1015.97 1016.16 1015.90
1018.74 1017.57 1016.22 1014.70 1012.87 1010.58 1008.33 1007.68 1005.89 1004.47 1005.67 1008.01 1009.65 1010.79 1012.13 1011.63 1013.43 1012.85 1013.90 1014.71 1014.80 1014.90 1015.38 1015.78 1016.01 1016.33 1016.36 1016.21 1016.23 1016.59 1016.79 1016.19 1016.31 1016.33 1016.30 1016.40 1016.24 1015.93 1015.75 1015.44 1015.31 1015.50 1015.35
1019.21 1018.27 1017.35 1016.16 1015.01 1013.17 1011.31 1010.82 1008.69 1005.10 1006.71 1009.27 1011.01 1012.21 1014.64 1013.97 1014.86 1014.89 1015.74 1015.80 1015.64 1015.69 1016.10 1016.28 1015.98 1015.73 1016.57 1016.48 1016.15 1015.90 1015.99 1015.99 1016.16 1016.10 1016.06 1016.33 1016.36 1015.89 1015.54 1015.42 1015.07 1014.77 1014.53
1019.63 1018.94 1018.09 1017.54 1016.27 1014.83 1014.05 1012.77 1011.71 1009.38 1009.76 1011.73 1012.75 1014.01 1014.42 1015.67 1015.79 1016.11 1016.69 1016.71 1016.55 1016.48 1016.83 1016.42 1016.01 1015.89 1015.93 1015.98 1015.61 1015.83 1015.88 1015.97 1016.05 1015.97 1015.98 1015.87 1015.75 1015.40 1015.05 1014.98 1014.78 1014.23 1014.04
1020.03 1019.28 1018.56 1017.97 1017.15 1016.40 1015.76 1014.84 1013.42 1013.38 1012.49 1013.28 1014.47 1015.61 1015.98 1016.33 1016.74 1016.54 1016.74 1016.76 1016.07 1016.53 1017.01 1016.73 1016.07 1015.90 1015.78 1015.52 1015.24 1015.72 1015.69 1016.06 1015.91 1015.50 1015.45 1015.42 1015.31 1015.09 1015.09 1014.75 1014.36 1014.06 1014.01
1020.22 1019.40 1018.90 1017.95 1017.52 1017.25 1016.94 1016.48 1015.85 1016.05 1015.21 1014.47 1015.61 1016.83 1017.17 1017.13 1016.77 1017.05 1016.81 1016.63 1015.90 1016.80 1016.80 1016.71 1016.70 1016.23 1016.09 1015.67 1015.49 1015.54 1015.42 1015.70 1015.83 1015.42 1015.40 1015.21 1015.16 1015.03 1014.91 1014.71 1014.34 1014.15 1013.91
1020.76 1019.96 1019.56 1018.89 1017.91 1017.86 1017.81 1017.69 1017.42 1016.29 1016.55 1017.11 1016.97 1017.37 1017.22 1016.85 1017.09 1017.07 1016.23 1016.02 1016.17 1016.17 1016.71 1017.34 1016.93 1016.32 1016.17 1015.77 1015.74 1015.71 1015.54 1015.48 1015.74 1015.61 1015.52 1015.31 1015.26 1015.08 1014.78 1014.43 1014.25 1014.14 1013.79
1021.91 1021.15 1020.32 1019.55 1019.11 1018.92 1018.31 1018.02 1017.95 1018.29 1018.48 1018.20 1017.45 1017.30 1017.29 1017.40 1017.41 1017.13 1016.59 1016.60 1016.60 1016.67 1017.06 1017.33 1017.11 1016.73 1016.14 1015.94 1016.17 1015.75 1015.65 1015.55 1015.48 1015.57 1015.52 1015.37 1015.03 1014.75 1014.63 1014.42 1014.19 1013.86 1013.69
1022.34 1021.64 1020.98 1020.17 1019.76 1019.48 1019.37 1018.71 1017.98 1018.20 1018.70 1018.54 1017.96 1017.87 1018.07 1018.23 1018.01 1017.77 1017.49 1017.11 1017.27 1017.38 1017.76 1017.73 1017.12 1016.77 1016.29 1016.15 1016.13 1016.19 1015.95 1015.81 1015.55 1015.32 1014.98 1014.86 1014.47 1014.32 1014.45 1014.19 1014.35 1013.83 1013.51
1022.97 1022.47 1022.03 1021.62 1021.30 1020.69 1020.06 1019.53 1019.21 1019.42 1019.36 1018.90 1018.84 1019.14 1019.08 1018.53 1018.33 1018.25 1017.93 1018.02 1018.34 1018.14 1017.84 1017.64 1017.14 1016.86 1016.55 1016.28 1016.12 1016.20 1016.20 1015.97 1015.74 1015.43 1015.11 1014.82 1014.01 1014.15 1014.27 1013.89 1013.93 1013.74 1013.34
1023.97 1023.54 1023.04 1022.73 1022.45 1022.02 1021.63 1021.10 1020.81 1020.77 1020.44 1020.30 1020.68 1020.61 1019.86 1019.09 1019.45 1019.43 1019.12 1019.04 1018.79 1018.51 1018.05 1017.55 1017.09 1016.95 1016.56 1016.45 1016.21 1016.10 1015.97 1015.96 1015.80 1015.43 1014.97 1014.69 1014.19 1014.21 1014.01 1013.77 1013.62 1013.35 1013.20
1024.36 1023.94 1023.51 1023.17 1023.01 1022.74 1022.48 1022.19 1021.92 1021.61 1021.45 1021.35 1021.25 1020.84 1020.08 1019.83 1019.67 1019.49 1019.31 1018.95 1018.48 1018.19 1017.95 1017.49 1017.11 1016.69 1016.51 1016.44 1016.18 1015.87 1015.80 1015.85 1015.64 1015.05 1014.77 1014.58 1014.18 1014.17 1013.78 1013.67 1013.41 1013.12 1013.16
1024.58 1024.14 1023.70 1023.49 1023.37 1023.05 1022.82 1022.59 1022.39 1022.09 1021.84 1021.45 1021.05 1020.54 1020.09 1019.79 1019.62 1019.51 1019.22 1018.81 1018.50 1018.13 1017.61 1017.03 1016.87 1016.57 1016.35 1016.05 1015.94 1015.77 1015.56 1015.33 1015.11 1014.80 1014.65 1014.51 1014.15 1014.00 1013.69 1013.51 1013.22 1013.07 1012.88
1024.73 1024.50 1024.17 1023.77 1023.55 1023.21 1022.89 1022.81 1022.73 1022.49 1022.22 1021.86 1021.43 1021.12 1020.83 1020.59 1020.15 1019.59 1019.04 1018.68 1018.31 1017.86 1017.49 1017.27 1016.82 1016.29 1015.83 1015.69 1015.65 1015.45 1015.19 1014.93 1014.66 1014.42 1014.21 1014.14 1014.04 1013.89 1013.57 1013.44 1013.16 1013.06 1012.83
1024.96 1024.79 1024.71 1024.53 1024.04 1023.69 1023.26 1023.03 1022.89 1022.53 1022.31 1021.94 1021.38 1020.97 1020.53 1020.16 1019.75 1019.27 1018.85 1018.43 1018.05 1017.43 1017.03 1016.78 1016.34 1015.97 1015.68 1015.29 1014.93 1014.76 1014.60 1014.33 1014.09 1013.95 1013.68 1013.67 1013.66 1013.40 1013.31 1013.29 1013.17 1013.01 1012.87
1025.30 1025.31 1025.31 1025.26 1024.97 1024.52 1024.13 1023.83 1023.69 1023.32 1022.89 1022.34 1021.86 1021.37 1020.82 1020.25 1019.74 1019.20 1018.66 1018.08 1017.61 1016.99 1016.42 1016.06 1015.64 1015.25 1014.83 1014.46 1014.19 1014.03 1013.81 1013.66 1013.56 1013.48 1013.35 1013.34 1013.33 1013.46 1013.29 1013.17 1013.05 1012.85 1012.77
1025.21 1025.29 1025.37 1025.27 1025.10 1024.75 1024.45 1024.07 1023.85 1023.43 1023.07 1022.49 1022.04 1021.55 1021.00 1020.41 1019.80 1019.15 1018.53 1017.91 1017.27 1016.53 1015.90 1015.36 1014.85 1014.47 1014.02 1013.61 1013.32 1013.15 1013.07 1012.99 1012.91 1012.95 1013.01 1013.01 1013.00 1012.99 1013.03 1013.00 1012.82 1012.72 1012.57
Wind_Speed
21 22 20 17 18 18 15 14 20 17 17 18 17 11 12 11 8 8 12 11 9 6 4 6 6 6 4 4 4 3 2 2 3 3 1 2 3 4 6 6 6 6 6
20 21 23 20 18 18 18 17 20 12 16 18 15 15 16 14 18 15 11 11 12 9 6 7 6 5 6 5 4 4 3 1 2 3 2 2 2 3 3 5 6 5 6
20 19 21 23 20 19 20 19 16 10 13 15 16 17 14 13 13 13 12 12 11 10 8 7 7 6 5 3 3 4 2 1 0 1 2 1 2 2 3 3 3 4 5
20 22 23 21 22 20 18 21 17 13 13 14 16 16 16 14 12 12 10 10 10 10 10 9 7 7 7 6 4 4 3 3 2 1 1 2 2 2 1 2 3 2 5
19 21 24 25 22 23 22 19 20 14 13 16 15 14 13 12 11 12 11 11 11 10 6 7 7 8 11 8 4 5 4 2 2 1 1 2 2 2 3 4 3 3 6
20 22 24 24 24 21 21 18 20 14 13 13 15 14 11 8 16 17 14 11 10 10 7 6 5 8 8 10 11 10 8 5 2 2 2 3 3 2 1 1 3 4 6
19 21 24 24 22 20 21 19 21 17 17 14 15 13 11 10 20 18 17 9 8 8 7 6 5 3 5 4 6 8 8 8 6 4 3 4 3 3 2 2 2 1 2
20 22 25 24 22 22 19 17 15 13 15 15 16 15 15 9 22 17 18 11 10 8 6 3 5 4 5 5 5 5 5 3 5 3 5 4 4 3 4 3 2 3 4
22 23 25 25 23 21 13 13 10 15 17 16 14 17 19 11 22 19 15 10 11 9 6 5 7 7 9 8 4 5 3 1 3 7 5 4 5 7 6 1 3 2 4
20 20 23 24 23 21 18 15 7 13 14 14 17 14 22 15 18 18 14 7 8 6 5 7 12 7 7 7 5 2 2 3 2 5 6 5 6 5 8 3 3 4 3
18 19 20 23 22 22 20 14 7 21 21 16 15 15 13 18 16 21 16 6 4 4 4 2 2 8 7 4 2 3 5 2 5 3 3 4 5 5 4 4 4 4 4
17 18 17 19 15 16 22 18 15 24 25 21 19 15 10 16 19 19 14 12 9 4 3 3 3 7 8 7 4 4 7 5 1 2 2 3 4 4 4 4 6 5 5
15 12 13 14 14 15 15 14 12 15 18 15 14 11 10 9 8 14 12 10 10 5 3 5 6 7 8 6 6 7 2 1 1 1 2 2 2 4 4 4 6 6 6
10 12 10 7 10 12 9 10 10 9 12 13 11 8 6 5 3 2 3 4 8 7 8 6 7 7 8 9 3 2 0 1 2 1 1 2 3 3 4 3 4 5 3
10 11 11 5 4 6 7 8 9 9 9 11 9 5 5 5 4 3 3 3 3 1 4 3 3 3 4 3 2 1 2 2 2 2 2 3 3 4 4 4 4 3 3
11 10 10 9 8 2 2 3 12 16 17 13 11 9 5 10 10 9 10 9 8 7 4 3 3 3 3 3 3 3 2 2 3 3 3 2 3 4 5 5 4 3 4
9 10 9 10 10 9 8 2 4 6 10 11 13 13 13 10 11 13 14 11 8 4 3 3 3 4 3 3 3 3 2 3 3 3 3 3 3 3 4 5 4 3 5
9 14 9 10 10 10 8 9 8 5 5 5 9 10 10 11 12 12 13 8 5 5 3 3 3 3 3 3 3 3 3 3 3 3 3 3 3 2 4 4 5 5 3
8 8 8 8 9 10 9 9 9 6 6 5 5 6 8 10 11 11 12 5 5 5 5 5 4 4 4 3 3 3 3 3 4 3 3 3 2 3 4 4 5 5 3
6 10 8 6 6 7 7 8 8 6 4 4 4 3 4 5 5 4 4 3 4 4 4 4 4 4 4 4 4 3 3 4 4 4 4 3 2 3 4 4 5 4 4
4 5 5 5 5 5 5 6 6 6 5 3 2 3 4 3 4 4 4 4 4 5 5 5 5 5 5 5 5 4 4 5 5 4 4 4 4 4 3 5 4 4 5
4 4 5 4 4 5 5 5 5 6 6 6 5 6 8 3 4 4 5 4 4 4 5 6 6 5 5 5 5 6 6 5 5 5 5 5 4 4 4 4 4 5 4
4 5 5 6 6 4 4 5 4 4 4 5 5 5 4 4 4 5 5 5 4 4 4 6 6 7 6 5 5 6 6 5 5 5 6 5 5 4 4 5 4 5 4
5 6 6 6 7 8 7 7 7 9 8 8 8 8 8 8 7 8 6 6 6 6 5 5 6 9 7 7 5 5 5 6 5 6 7 3 4 4 4 5 4 6 6
3 4 4 5 5 5 7 4 5 5 5 6 7 7 7 7 8 8 8 8 9 9 10 9 9 10 10 11 10 10 9 8 7 4 4 4 6 9 6 4 4 5 6
1 3 3 4 5 5 5 4 5 5 5 7 7 7 7 7 8 8 9 9 10 11 12 9 10 14 15 11 11 10 8 8 6 6 5 5 6 6 6 6 9 6 6
Wind_Direction
329 322 318 311 306 299 296 292 296 256 216 218 183 178 150 158 127 139 138 153 167 183 172 142 135 132 116 103 96 94 84 105 187 304 313 320 10 4 360 4 14 19 353
318 314 310 306 304 299 294 294 304 249 197 197 179 162 160 168 160 159 166 174 171 165 162 139 139 124 117 124 113 111 117 101 162 216 290 312 34 354 354 2 357 10 350
312 312 307 304 301 294 292 296 306 223 189 175 172 167 174 169 163 155 164 169 166 152 159 142 148 127 125 132 125 124 127 108 117 138 260 295 288 348 357 322 331 343 348
312 309 308 301 298 292 285 288 287 218 185 169 166 164 172 162 154 159 172 172 154 149 158 138 145 143 151 159 146 156 169 148 93 12 337 289 279 308 260 251 330 331 336
319 308 312 308 297 290 283 282 282 208 190 167 161 154 149 165 148 156 154 158 142 132 122 126 144 156 166 176 146 191 161 140 172 121 321 327 309 339 338 310 309 342 344
327 321 313 312 307 294 287 271 274 189 169 166 147 146 146 149 137 140 141 138 137 125 129 132 150 168 177 187 187 182 176 165 202 146 201 229 249 227 265 312 325 349 352
332 324 318 319 310 295 286 267 265 187 160 150 130 126 112 117 117 119 120 122 123 108 129 135 151 127 145 189 233 208 202 208 207 177 209 232 234 208 176 280 265 208 258
341 335 330 328 316 307 269 252 220 165 135 128 116 107 103 105 102 99 98 99 86 78 78 118 146 117 35 206 208 201 213 244 264 234 213 245 223 220 213 209 241 273 286
348 342 337 336 331 331 323 237 143 130 119 119 115 114 112 93 95 92 92 88 86 85 84 82 93 85 42 42 87 50 4 346 28 35 35 5 327 299 264 125 324 9 312
348 343 343 346 347 349 6 23 114 104 101 106 104 95 98 93 85 83 86 88 90 94 78 73 87 102 100 74 80 87 304 266 338 334 337 334 309 281 297 243 207 219 236
350 351 352 356 350 3 15 20 67 90 87 76 70 72 70 73 59 68 56 58 80 96 73 125 122 29 12 19 80 213 237 233 292 301 302 317 314 309 301 287 241 210 253
352 358 1 359 357 359 19 15 6 87 77 76 72 66 48 60 55 52 50 37 38 62 65 49 32 8 330 309 304 264 270 284 308 324 342 295 284 294 298 295 285 273 239
352 355 349 10 10 16 18 16 15 43 79 79 78 66 56 46 45 50 35 35 36 53 19 0 347 344 336 318 331 317 55 27 283 263 265 252 242 250 260 282 287 270 269
324 340 330 324 18 22 34 31 41 32 72 87 86 85 87 69 71 62 51 25 32 23 356 335 335 322 293 272 313 283 175 231 275 274 296 300 297 314 308 294 292 292 265
342 351 354 332 5 2 12 11 38 41 55 72 71 74 78 72 42 23 26 1 41 343 346 3 0 357 3 19 65 45 82 45 332 322 316 321 316 310 301 300 295 300 271
355 359 2 7 11 359 344 18 32 55 55 61 69 70 53 50 19 7 27 31 12 38 45 358 332 360 358 357 8 341 343 324 305 301 292 279 290 302 309 308 288 283 291
352 359 358 7 20 16 24 15 67 25 61 49 46 37 29 20 15 22 20 15 41 63 20 335 328 331 352 356 331 324 309 301 272 272 278 279 280 291 301 309 305 300 314
1 7 7 7 11 12 18 20 28 61 50 25 25 28 27 34 33 23 20 15 16 18 1 333 349 345 348 348 342 332 325 312 297 272 262 270 281 275 295 304 299 300 316
3 9 8 17 8 9 16 23 29 48 53 45 21 10 357 9 14 8 11 20 357 345 340 334 337 335 334 330 325 317 307 312 310 297 306 303 298 299 300 307 282 284 303
346 13 25 18 17 24 25 24 23 28 32 42 16 337 337 25 12 351 6 355 342 322 319 315 320 309 313 306 300 282 291 292 304 303 293 279 294 300 303 304 291 302 306
359 1 5 35 36 30 23 25 18 14 19 342 310 289 334 36 355 341 335 337 335 332 320 307 301 295 299 296 297 295 296 295 293 284 285 288 296 299 303 289 296 307 296
4 358 17 17 6 21 10 8 11 8 356 357 339 334 340 352 340 326 328 315 308 300 317 323 308 295 284 286 295 297 282 269 273 277 275 277 289 288 293 296 296 307 289
20 16 9 7 359 340 14 18 6 357 341 334 330 334 321 307 297 291 301 295 284 287 281 297 304 301 296 284 269 270 274 273 279 268 268 269 280 278 289 303 297 292 295
22 17 9 352 355 351 352 7 357 350 348 347 344 340 337 332 327 327 315 323 313 306 298 287 290 296 285 280 273 272 271 280 283 281 269 286 299 287 276 271 270 285 306
28 21 11 349 340 333 339 357 338 328 327 329 330 328 323 323 322 324 319 324 321 317 318 311 307 301 294 294 286 286 284 258 256 261 284 268 260 271 273 277 277 279 286
61 24 9 343 340 338 340 332 333 325 321 331 324 316 311 312 314 315 319 318 316 314 313 308 308 308 304 299 296 290 283 276 254 244 247 247 249 250 241 250 260 262 276